Вернуться в каталог

CZ-4 DEB

АктивенPO
NORAD 26235·DEBRIS·🇨🇳 China

Запущен Oct 14, 1999 с Taiyuan Satellite Launch Center

Loading…

Ближайшие Пролёты (ближайшие 24 часа)

TLE

УстаревающийSource: Space-Track

Эпоха: Sep 8, 2026, 07:09 UTC

1 26235U 99057DZ  26251.29839465  .06849019  30674-5  39932-2 0  9990
2 26235  98.4609  95.1295 0009610 284.4887  75.5331 16.18679124417522

Отслеживайте CZ-4 DEB в реальном времени с AllMySat

Download on the App Store